Unser Flugplatzteam

Segelflugzeugschlepp am Flugplatz Konstanz

Unsere freundlichen Mitarbeiter stehen Ihnen gerne mit Rat und Tat zur Seite:

Minky Schweizer

Flugleiterin, Beauftragte für Luftaufsicht am Verkehrlandeplatz Konstanz

Jan Schumacher

Flugleiter, Beauftragter für Luftaufsicht am Verkehrlandeplatz Konstanz

Live am Platz

Die Bilder unserer Webcams werden alle 5 Minuten aktualisiert.

Sonnenaufgang:

03:59 UTC / 05:59 Lokal

Sonnenuntergang:

19:00 UTC / 21:00 Lokal

METAR (01.08.2021 16:20 UTC):

EDNY 011620Z 17004KT 9999 FEW024 17/13 Q1013
VFR

TAF (01.08.2021 11:00 UTC):

TAF EDNY 011100Z 0112/0212 VRB02KT 9999 SCT009 BKN040 TEMPO 0112/0121 SHRA BKN008 BKN030CB TEMPO 0114/0118 23005KT

Alle Angaben unverbindlich und ohne Gewähr. Zeiten genähert.

Für den Verkehrslandeplatz Konstanz werden keine offiziellen Wetterinformationen ausgegeben. Daher werden zur Orientierung Daten des nahegelegenen Flughafens Friedrichshafen dargestellt.

Das Landeentgelt kann bei uns auch mit aerops bezahlt werden. Die App für's Handy ist kostenfrei erhältlich.